Latest Weather Observations for Middle Point

IDD60901

Issued at 10:11 am CST Saturday 28 March 2015 (issued every 10 minutes, with the page automatically refreshed every 10 minutes)

About weather observations | Map of Darwin area stations | Latest observations for Darwin area | Other Formats
Station Details ID: 014041 Name: MIDDLE POINT Lat: -12.61 Lon: 131.30 Height: 14.1 m
Data from the previous 72 hours. | See also: Recent months at Middle Point
Date/Time
CST
Tmp

°C
App
Tmp
°C
Dew
Point
°C
Rel
Hum
%
Delta-T

°C
Wind Press
QNH
hPa
Press
MSL
hPa
Rain
since
9 am
mm
Dir
 
Spd
km/h
Gust
km/h
Spd
kts
Gust
kts
28/10:00am 29.6 34.3 23.3 69 4.3 NE 4 6 2 3 1013.6 1013.4 0.2
28/09:30am 28.8 33.6 23.5 73 3.6 E 4 6 2 3 1013.3 1013.1 0.0
28/09:00am 27.7 32.4 23.3 77 3.0 ESE 4 7 2 4 1013.2 1013.0 25.6
28/08:30am 26.2 30.9 23.3 84 2.0 ESE 4 6 2 3 1012.9 1012.7 25.6
28/08:00am 24.8 29.9 22.7 88 1.4 CALM 0 2 0 1 1012.6 1012.4 25.6
28/07:30am 23.9 29.1 22.9 94 0.7 CALM 0 0 0 0 1012.3 1012.1 25.6
28/07:00am 22.6 27.0 21.4 93 0.8 CALM 0 0 0 0 1012.1 1011.9 25.6
28/06:30am 22.6 27.0 21.4 93 0.8 CALM 0 0 0 0 1011.9 1011.7 25.6
28/06:00am 22.4 26.7 21.2 93 0.8 CALM 0 0 0 0 1011.8 1011.6 25.6
28/05:30am 22.3 26.6 21.1 93 0.8 CALM 0 0 0 0 1011.6 1011.4 25.6
28/05:00am 22.5 26.9 21.3 93 0.8 CALM 0 0 0 0 1011.5 1011.3 25.6
28/04:30am 22.4 26.7 21.2 93 0.8 CALM 0 0 0 0 1011.1 1010.9 25.6
28/04:00am 22.5 26.9 21.3 93 0.8 CALM 0 0 0 0 1011.2 1011.0 25.6
28/03:30am 22.5 26.9 21.3 93 0.8 CALM 0 0 0 0 1011.3 1011.1 25.6
28/03:00am 22.8 27.2 21.4 92 0.9 CALM 0 0 0 0 1011.6 1011.4 25.6
28/02:30am 22.7 26.7 21.3 92 0.9 S 2 2 1 1 1011.9 1011.7 25.6
28/02:00am 23.1 27.7 21.7 92 0.9 CALM 0 0 0 0 1012.3 1012.1 25.6
28/01:30am 23.3 28.0 21.9 92 0.9 CALM 0 0 0 0 1012.7 1012.5 25.6
28/01:00am 23.4 28.0 21.8 91 1.1 CALM 0 0 0 0 1012.9 1012.7 25.6
28/12:30am 23.5 27.4 21.9 91 1.1 S 4 4 2 2 1013.3 1013.1 25.6
28/12:00am 23.5 28.2 21.9 91 1.1 CALM 0 0 0 0 1013.7 1013.5 25.6
 
Date/Time
CST
Tmp

°C
App
Tmp
°C
Dew
Point
°C
Rel
Hum
%
Delta-T

°C
Wind Press
QNH
hPa
Press
MSL
hPa
Rain
since
9 am
mm
Dir
 
Spd
km/h
Gust
km/h
Spd
kts
Gust
kts
27/11:30pm 23.6 28.3 21.9 90 1.1 CALM 0 0 0 0 1013.8 1013.6 25.6
27/11:00pm 23.6 27.9 21.9 90 1.1 SSW 2 4 1 2 1013.8 1013.6 25.6
27/10:30pm 23.4 27.8 21.3 88 1.4 CALM 0 2 0 1 1013.9 1013.7 25.6
27/10:00pm 23.8 27.1 21.5 87 1.5 SSE 6 7 3 4 1014.1 1013.9 25.6
27/09:30pm 24.2 28.1 21.9 87 1.5 S 4 4 2 2 1014.1 1013.9 25.6
27/09:00pm 24.4 27.9 21.9 86 1.7 S 6 7 3 4 1014.1 1013.9 25.6
27/08:30pm 25.2 27.9 22.1 83 2.1 SSE 11 17 6 9 1013.9 1013.7 25.6
27/08:00pm 25.1 29.3 23.5 91 1.1 SSE 7 19 4 10 1014.0 1013.8 25.6
27/07:30pm 25.4 29.9 23.6 90 1.2 SSE 6 6 3 3 1013.2 1013.0 25.6
27/07:00pm 25.9 31.6 23.8 88 1.4 CALM 0 0 0 0 1012.2 1012.0 25.6
27/06:30pm 26.5 32.2 23.8 85 1.9 CALM 0 0 0 0 1012.1 1011.9 25.6
27/06:00pm 26.6 32.3 23.7 84 2.0 CALM 0 0 0 0 1011.7 1011.5 25.6
27/05:30pm 26.7 32.3 23.6 83 2.1 CALM 0 0 0 0 1011.5 1011.3 25.6
27/05:00pm 26.4 30.8 23.5 84 2.0 SE 6 7 3 4 1011.2 1011.0 25.6
27/04:30pm 26.7 32.2 23.4 82 2.3 CALM 0 4 0 2 1011.0 1010.8 25.6
27/04:00pm 26.4 31.8 23.3 83 2.1 CALM 0 0 0 0 1010.9 1010.7 25.6
27/03:30pm 25.7 30.3 23.2 86 1.7 N 4 6 2 3 1011.1 1010.9 25.6
27/03:00pm 25.4 29.8 23.5 89 1.3 NNW 6 7 3 4 1011.5 1011.3 25.6
27/02:30pm 24.7 28.8 22.9 90 1.2 NNW 6 9 3 5 1011.9 1011.7 25.6
27/02:00pm 24.3 28.3 22.7 91 1.1 N 6 9 3 5 1012.5 1012.3 25.6
27/01:30pm 24.3 28.3 22.7 91 1.1 N 6 9 3 5 1013.2 1013.0 25.4
27/01:00pm 24.3 28.5 23.1 93 0.8 N 6 7 3 4 1013.7 1013.5 24.8
27/12:30pm 23.9 27.7 22.7 93 0.8 NE 7 11 4 6 1014.2 1014.0 23.8
27/12:00pm 23.8 27.8 22.8 94 0.7 ENE 6 9 3 5 1014.7 1014.5 21.4
27/11:30am 23.5 27.4 22.5 94 0.7 ESE 6 9 3 5 1015.1 1014.9 20.2
27/11:00am 23.3 26.9 22.1 93 0.8 SE 6 7 3 4 1015.7 1015.5 18.4
27/10:30am 23.2 27.5 22.0 93 0.8 NE 2 4 1 2 1015.9 1015.7 14.8
27/10:00am 23.3 25.9 21.9 92 0.9 NW 11 15 6 8 1015.8 1015.6 10.0
27/09:30am 23.8 24.5 21.5 87 1.5 NW 20 32 11 17 1015.9 1015.7 3.6
27/09:00am 25.9 31.0 24.1 90 1.2 SSE 4 6 2 3 1015.7 1015.5 38.4
27/08:30am 25.7 30.8 24.1 91 1.1 S 4 6 2 3 1015.6 1015.4 38.4
27/08:00am 25.2 30.6 23.8 92 1.0 WNW 2 4 1 2 1015.5 1015.3 38.4
27/07:30am 24.9 29.1 23.5 92 1.0 NNW 7 17 4 9 1015.0 1014.8 38.4
27/07:00am 24.9 30.1 23.5 92 1.0 ESE 2 2 1 1 1014.3 1014.1 38.4
27/06:30am 24.9 30.5 23.5 92 1.0 CALM 0 0 0 0 1013.7 1013.5 38.4
27/06:00am 24.9 30.6 23.7 93 0.8 CALM 0 2 0 1 1013.2 1013.0 38.4
27/05:30am 24.8 29.7 23.6 93 0.8 ENE 4 6 2 3 1013.2 1013.0 38.4
27/05:00am 24.7 28.9 23.5 93 0.8 ENE 7 9 4 5 1012.5 1012.3 38.4
27/04:30am 24.7 28.8 23.3 92 1.0 ENE 7 11 4 6 1012.6 1012.4 38.4
27/04:00am 24.9 28.9 23.7 93 0.8 ENE 9 11 5 6 1012.8 1012.6 38.4
27/03:30am 24.8 28.3 23.6 93 0.8 NE 11 17 6 9 1012.8 1012.6 38.4
27/03:00am 24.5 27.9 23.3 93 0.8 NE 11 15 6 8 1013.0 1012.8 38.2
27/02:30am 24.5 26.9 22.9 91 1.1 NE 15 20 8 11 1013.3 1013.1 37.2
27/02:00am 24.7 26.5 23.3 92 1.0 ENE 19 32 10 17 1013.4 1013.2 37.2
27/01:30am 25.0 28.6 23.8 93 0.8 ESE 11 15 6 8 1013.7 1013.5 37.2
27/01:00am 24.8 27.9 23.6 93 0.8 E 13 17 7 9 1013.8 1013.6 37.0
27/12:30am 24.5 27.7 23.1 92 0.9 E 11 15 6 8 1014.2 1014.0 32.6
27/12:00am 25.0 28.4 23.4 91 1.1 E 11 19 6 10 1014.1 1013.9 30.6
 
Date/Time
CST
Tmp

°C
App
Tmp
°C
Dew
Point
°C
Rel
Hum
%
Delta-T

°C
Wind Press
QNH
hPa
Press
MSL
hPa
Rain
since
9 am
mm
Dir
 
Spd
km/h
Gust
km/h
Spd
kts
Gust
kts
26/11:30pm 25.6 28.1 23.8 90 1.2 ENE 17 33 9 18 1013.9 1013.7 30.6
26/11:00pm 26.0 29.5 24.2 90 1.2 ENE 13 20 7 11 1013.7 1013.5 30.6
26/10:30pm 25.7 28.3 23.9 90 1.2 ENE 17 28 9 15 1013.8 1013.6 27.0
26/10:00pm 26.4 30.7 24.2 88 1.5 E 9 13 5 7 1013.6 1013.4 14.4
26/09:30pm 26.6 31.9 24.3 87 1.6 ENE 4 7 2 4 1013.6 1013.4 14.4
26/09:00pm 26.7 31.1 24.4 87 1.6 NE 9 11 5 6 1013.1 1012.9 14.4
26/08:30pm 26.5 29.8 23.8 85 1.9 ENE 13 19 7 10 1012.6 1012.4 14.4
26/08:00pm 27.0 30.2 23.7 82 2.3 NE 13 20 7 11 1012.3 1012.1 14.4
26/07:30pm 27.3 31.2 24.2 83 2.1 NE 11 15 6 8 1012.4 1012.2 14.4
26/07:00pm 27.1 31.0 23.6 81 2.4 NNE 9 11 5 6 1011.9 1011.7 14.4
26/06:30pm 28.0 30.7 23.4 76 3.2 NE 15 22 8 12 1011.7 1011.5 14.4
26/06:00pm 28.9 31.9 23.3 72 3.8 NNE 13 19 7 10 1011.2 1011.0 14.4
26/05:30pm 30.3 31.5 22.5 63 5.3 NNE 20 32 11 17 1010.2 1010.1 14.4
26/05:00pm 30.6 31.9 24.0 68 4.6 NNE 24 35 13 19 1009.9 1009.8 14.4
26/04:30pm 31.1 32.1 23.5 64 5.3 NNE 24 33 13 18 1010.0 1009.9 14.4
26/04:00pm 31.6 33.3 24.0 64 5.3 NE 22 37 12 20 1010.0 1009.9 14.4
26/03:30pm 31.6 33.2 23.2 61 5.8 NE 20 26 11 14 1009.8 1009.7 14.4
26/03:00pm 31.2 32.5 23.3 63 5.5 NE 22 32 12 17 1009.6 1009.5 14.4
26/02:30pm 31.5 33.9 24.6 67 4.8 NE 20 28 11 15 1010.1 1010.0 14.4
26/02:00pm 31.2 33.6 24.6 68 4.6 NE 20 26 11 14 1010.5 1010.4 14.2
26/01:30pm 30.5 34.1 25.6 75 3.5 NE 17 24 9 13 1011.0 1010.8 14.2
26/01:00pm 27.2 31.9 25.6 91 1.1 ENE 11 15 6 8 1011.5 1011.3 14.2
26/12:30pm 25.2 27.2 23.6 91 1.1 ENE 19 28 10 15 1011.9 1011.7 14.2
26/12:11pm 25.5 24.9 22.0 81 2.3 NE 28 48 15 26 1012.5 1012.3 9.6
26/12:00pm 29.7 32.0 24.1 72 3.9 NE 19 30 10 16 1012.1 1011.9 8.6
26/11:30am 27.0 32.0 24.8 88 1.5 W 7 9 4 5 1012.4 1012.2 8.6
26/11:00am 26.4 29.6 23.7 85 1.9 NE 13 22 7 12 1013.0 1012.8 6.4
26/10:30am 29.6 31.3 24.0 72 3.9 NE 22 30 12 16 1013.0 1012.8 0.0
26/10:00am 29.2 31.9 24.7 77 3.1 NE 19 26 10 14 1012.9 1012.7 0.0
26/09:30am 27.7 30.5 24.3 82 2.4 ENE 17 26 9 14 1012.8 1012.6 0.0
26/09:00am 27.5 30.9 24.6 84 2.0 ENE 15 22 8 12 1012.7 1012.5 3.4
26/08:30am 26.5 29.7 24.3 88 1.5 E 15 19 8 10 1012.4 1012.2 3.4
26/08:00am 25.4 29.3 23.6 90 1.2 E 9 13 5 7 1012.2 1012.0 3.4
26/07:30am 24.6 28.4 23.4 93 0.8 ENE 9 13 5 7 1011.8 1011.6 3.4
26/07:00am 24.5 28.6 23.3 93 0.8 E 7 9 4 5 1011.5 1011.3 3.4
26/06:30am 24.5 28.8 23.3 93 0.8 E 6 7 3 4 1011.3 1011.1 3.4
26/06:00am 24.4 28.5 23.2 93 0.8 E 7 9 4 5 1010.9 1010.7 3.4
26/05:30am 24.4 28.5 23.2 93 0.8 E 7 9 4 5 1010.7 1010.6 3.4
26/05:00am 24.1 28.8 22.7 92 0.9 E 2 7 1 4 1010.2 1010.1 3.4
26/04:30am 23.9 28.9 22.5 92 0.9 CALM 0 2 0 1 1009.7 1009.6 3.4
26/04:00am 24.2 28.3 23.0 93 0.8 E 6 7 3 4 1009.7 1009.6 3.4
26/03:30am 24.3 28.8 22.9 92 0.9 E 4 6 2 3 1009.7 1009.6 3.2
26/03:00am 24.4 28.3 23.0 92 0.9 E 7 7 4 4 1010.1 1010.0 3.2
26/02:30am 24.4 29.3 23.0 92 0.9 ENE 2 4 1 2 1010.4 1010.3 3.2
26/02:00am 24.8 29.2 23.4 92 1.0 NE 6 7 3 4 1010.4 1010.3 3.2
26/01:30am 24.8 29.5 23.4 92 1.0 ENE 4 6 2 3 1010.6 1010.5 3.2
26/01:00am 24.4 29.2 22.8 91 1.1 SW 2 4 1 2 1011.1 1010.9 3.2
26/12:30am 24.4 29.1 22.7 90 1.1 SW 2 4 1 2 1011.5 1011.3 3.2
26/12:00am 24.6 27.3 22.8 90 1.2 WNW 13 20 7 11 1011.6 1011.4 3.2
 
Date/Time
CST
Tmp

°C
App
Tmp
°C
Dew
Point
°C
Rel
Hum
%
Delta-T

°C
Wind Press
QNH
hPa
Press
MSL
hPa
Rain
since
9 am
mm
Dir
 
Spd
km/h
Gust
km/h
Spd
kts
Gust
kts
25/11:30pm 25.0 29.2 23.4 91 1.1 NE 7 7 4 4 1011.3 1011.1 0.0
25/11:00pm 24.9 29.1 23.1 90 1.2 NNE 6 6 3 3 1011.5 1011.3 0.0
25/10:30pm 25.3 30.1 23.5 90 1.2 NNE 4 4 2 2 1011.2 1011.0 0.0
25/10:00pm 25.5 29.8 23.6 89 1.3 NNE 7 9 4 5 1011.1 1010.9 0.0
25/09:30pm 25.5 30.0 23.7 90 1.2 NNE 6 6 3 3 1010.6 1010.5 0.0
25/09:00pm 25.6 30.1 23.7 89 1.3 N 6 7 3 4 1010.4 1010.3 0.0
25/08:30pm 25.8 29.8 23.7 88 1.4 N 9 15 5 8 1010.4 1010.3 0.0
25/08:00pm 26.0 29.2 23.7 87 1.6 N 13 17 7 9 1009.9 1009.8 0.0
25/07:30pm 26.3 29.2 23.8 86 1.7 NNE 15 20 8 11 1010.0 1009.9 0.0
25/07:00pm 26.6 29.4 23.7 84 2.0 NNE 15 20 8 11 1009.4 1009.3 0.0
25/06:30pm 27.9 30.6 23.5 77 3.0 NNE 15 22 8 12 1008.8 1008.7 0.0
25/06:00pm 29.5 32.1 22.7 67 4.6 NNW 13 20 7 11 1008.3 1008.2 0.0
25/05:30pm 30.4 32.4 22.3 62 5.5 NNW 15 20 8 11 1007.9 1007.8 0.0
25/05:00pm 31.0 32.7 22.3 60 5.9 NW 17 24 9 13 1007.6 1007.5 0.0
25/04:30pm 31.7 33.6 22.1 56 6.5 NW 15 20 8 11 1007.3 1007.2 0.0
25/04:00pm 31.7 33.4 22.4 58 6.3 NW 17 24 9 13 1007.1 1007.0 0.0
25/03:30pm 32.0 34.2 23.3 60 6.0 NNW 17 24 9 13 1007.0 1006.9 0.0
25/03:00pm 31.6 34.0 22.9 60 6.0 NNW 15 22 8 12 1007.1 1007.0 0.0
25/02:30pm 29.7 31.4 21.6 61 5.5 N 15 20 8 11 1007.4 1007.3 0.0
25/02:00pm 30.8 33.2 22.9 62 5.4 N 15 20 8 11 1007.8 1007.7 0.0
25/01:30pm 29.4 31.3 22.1 65 4.9 NNW 15 22 8 12 1008.2 1008.1 0.0
25/01:00pm 30.4 33.5 23.6 67 4.7 NNW 13 19 7 10 1008.6 1008.5 0.0
25/12:30pm 28.7 31.0 22.0 67 4.5 NNW 13 19 7 10 1009.0 1008.9 0.0
25/12:00pm 29.2 31.7 22.4 66 4.6 NNW 13 20 7 11 1009.2 1009.1 0.0
25/11:30am 28.5 30.9 23.0 72 3.8 NNW 15 20 8 11 1009.7 1009.6 0.0
25/11:00am 27.2 31.0 22.8 77 3.0 NW 7 9 4 5 1009.8 1009.7 0.0
25/10:30am 26.9 30.8 22.9 79 2.7 NNW 7 9 4 5 1010.0 1009.9 0.0

Latest Capital City Observations: Canberra | Sydney | Melbourne | Brisbane | Adelaide | Perth | Hobart | Darwin

Other Formats:

Comma delimited format used in spreadsheet applications
http://www.bom.gov.au/fwo/IDD60901/IDD60901.95121.axf

JavaScript Object Notation format (JSON) in row-major order
http://www.bom.gov.au/fwo/IDD60901/IDD60901.95121.json